Terminal Aerodrome Forecast
Issued by NWS New Orleans/Baton Rouge, LA

Home | Current Version | Previous Version | Text Only | Print | Product List | Glossary On
Versions: 1 2 3 4 5 6 7 8 9 10 11 12 13 14 15 16 17 18 19 20 21
000
FTUS44 KLIX 271726
TAFBTR
TAF
KBTR 271726Z 2718/2818 14009KT P6SM VCSH FEW025 BKN035
     FM280300 14007KT P6SM BKN250
     FM280900 VRB03KT P6SM BKN035
     FM281500 15010KT P6SM BKN050=

USA.gov is the U.S. government's official web portal to all federal, state and local government web resources and services.